Weather History for Broken Bow, NE

Change the Weather History Date:

Tuesday, November 29, 2011

  Actual Average Record
Temperature  
Mean Temperature 30 °F 29 °F  
Max Temperature 46 °F 42 °F 73 °F (2014)
Min Temperature 14 °F 17 °F -12 °F (1976)
Degree Days  
Heating Degree Days 35 36  
Month to date heating degree days 805 839  
Cooling Degree Days 0 0  
Month to date cooling degree days 0 0  
Year to date cooling degree days 755 768  
Moisture  
Dew Point 17 °F    
Average Humidity 59    
Maximum Humidity 92    
Minimum Humidity 25    
Precipitation  
Precipitation 0.00 in 0.03 in 0.34 in (1908)
Sea Level Pressure  
Sea Level Pressure 30.33 in    
Wind  
Wind Speed 5 mph (SSW)    
Max Wind Speed 16 mph    
Max Gust Speed 22 mph    
Visibility 10 miles    
Events      
T = Trace of Precipitation, MM = Missing Value Source: NWS Daily Summary

Daily Weather History Graph

Daily Weather History Graph

Search for Another Location

Airport:

Trip Planner

Search our weather history database for the weather conditions in past years. The results will help you decide how hot, cold, wet, or windy it might be!

Date:

Astronomy

Nov. 29, 2011 Rise Set
Actual Time 7:42 AM CST 5:10 PM CST
Civil Twilight 7:12 AM CST 5:41 PM CST
Nautical Twilight 6:38 AM CST 6:15 PM CST
Astronomical Twilight 6:04 AM CST 6:48 PM CST
Moon 11:29 AM CST (11/29) 10:07 PM CST (11/29)
Length of Visible Light 10h 28m
Length of Day
9h 27m
Waxing Crescent, 24% of the Moon is Illuminated
Nov 29
Waxing Crescent
Dec 2
First Quarter
Dec 10
Full
Dec 17
Last Quarter
Dec 24
New

Hourly Weather History & Observations

Time (CST) Temp. Windchill Dew Point Humidity Pressure Visibility Wind Dir Wind Speed Gust Speed Precip Events Conditions
12:53 AM 30.2 °F 20.2 °F 24.8 °F 80% 30.32 in 10.0 mi North 12.7 mph - N/A   Clear
1:53 AM 28.0 °F 17.5 °F 24.1 °F 85% 30.35 in 10.0 mi North 12.7 mph - N/A   Clear
2:53 AM 26.1 °F 15.6 °F 21.9 °F 84% 30.37 in 10.0 mi North 11.5 mph - N/A   Clear
3:53 AM 24.8 °F 14.6 °F 21.2 °F 86% 30.34 in 10.0 mi North 10.4 mph - N/A   Clear
4:53 AM 21.9 °F - 19.0 °F 89% 30.39 in 10.0 mi Calm Calm - N/A   Clear
5:53 AM 18.0 °F - 15.1 °F 88% 30.41 in 10.0 mi Calm Calm - N/A   Clear
6:53 AM 15.1 °F - 12.9 °F 91% 30.43 in 10.0 mi Calm Calm - N/A   Clear
7:53 AM 16.0 °F - 12.9 °F 88% 30.44 in 10.0 mi Calm Calm - N/A   Clear
8:53 AM 21.0 °F - 19.0 °F 92% 30.44 in 10.0 mi Calm Calm - N/A   Clear
9:53 AM 30.0 °F - 25.0 °F 82% 30.44 in 10.0 mi Calm Calm - N/A   Clear
10:53 AM 35.1 °F 32.2 °F 24.1 °F 64% 30.43 in 10.0 mi ESE 3.5 mph - N/A   Scattered Clouds
11:53 AM 37.9 °F 34.4 °F 21.9 °F 53% 30.40 in 10.0 mi South 4.6 mph - N/A   Overcast
12:53 PM 42.1 °F 37.7 °F 19.9 °F 41% 30.36 in 10.0 mi SW 6.9 mph - N/A   Mostly Cloudy
1:53 PM 43.0 °F 38.2 °F 16.0 °F 34% 30.33 in 10.0 mi SW 8.1 mph - N/A   Mostly Cloudy
2:53 PM 45.0 °F 40.6 °F 14.0 °F 29% 30.31 in 10.0 mi SW 8.1 mph - N/A   Overcast
3:53 PM 46.0 °F 41.0 °F 12.0 °F 25% 30.29 in 10.0 mi South 10.4 mph - N/A   Clear
4:53 PM 39.9 °F 33.9 °F 10.9 °F 31% 30.28 in 10.0 mi SSW 9.2 mph - N/A   Clear
5:53 PM 32.0 °F 25.6 °F 10.9 °F 42% 30.29 in 10.0 mi South 6.9 mph - N/A   Clear
6:53 PM 28.0 °F 24.2 °F 10.9 °F 49% 30.30 in 9.0 mi South 3.5 mph - N/A   Clear
7:53 PM 26.6 °F - 12.2 °F 55% 30.18 in 10.0 mi Calm Calm - N/A   Clear
8:53 PM 27.0 °F - 12.0 °F 53% 30.25 in 10.0 mi Calm Calm - N/A   Clear
9:53 PM 28.0 °F 24.2 °F 12.9 °F 53% 30.22 in 10.0 mi SSW 3.5 mph - N/A   Clear
10:53 PM 28.9 °F 23.9 °F 15.1 °F 56% 30.18 in 10.0 mi South 4.6 mph - N/A   Clear
11:53 PM 33.1 °F - 16.0 °F 50% 30.14 in 10.0 mi Calm Calm - N/A   Clear